EW4997 Weather Reports


time (UTC)temp
C
wind
direction
speed
KPH
gust
KPH
rain 1hr
cm
rain 24hr
cm
rain mn
cm
humidity
%
barometer
mb
20260504213059 22 178 4.8 16.1 0.00 0.00 0.00 46 993.2
20260504211554 22 171 1.6 12.9 0.00 0.00 0.00 43 993.5
20260504210050 22 275 4.8 17.7 0.00 0.00 0.00 44 993.6
20260504204551 22 277 6.4 12.9 0.00 0.00 0.00 44 993.9
20260504203048 22 300 3.2 14.5 0.00 0.00 0.00 46 994.0
20260504201600 22 286 3.2 14.5 0.00 0.00 0.00 50 994.1
20260504200046 22 180 4.8 17.7 0.00 0.00 0.00 51 994.3
20260504194548 22 286 4.8 17.7 0.00 0.00 0.00 50 994.7
20260504193039 23 191 3.2 12.9 0.00 0.00 0.00 49 995.0
20260504191542 22 309 1.6 14.5 0.00 0.00 0.00 51 995.4
20260504190033 22 161 3.2 12.9 0.00 0.00 0.00 52 995.5
20260504184535 22 317 3.2 12.9 0.00 0.00 0.00 49 995.7
20260504183028 22 167 6.4 14.5 0.00 0.00 0.00 49 996.0
20260504181531 21 246 1.6 12.9 0.00 0.00 0.00 52 996.1
20260504180023 21 193 3.2 12.9 0.00 0.00 0.00 49 996.3
20260504174519 20 159 3.2 17.7 0.00 0.00 0.00 50 996.5
20260504173014 20 184 6.4 14.5 0.00 0.00 0.00 52 996.4
20260504171512 19 275 8.0 16.1 0.00 0.00 0.00 51 996.8
20260504100115 4 191 0.0 3.2 0.00 0.00 0.00 86 998.1
20260504090122 4 191 0.0 0.0 0.00 0.00 0.00 85 998.3
20260504081550 5 191 0.0 1.6 0.00 0.00 0.00 84 998.2
20260504044530 6 191 0.0 0.0 0.00 0.00 0.00 74 998.4
20260504043028 7 191 0.0 0.0 0.00 0.00 0.00 74 998.3
20260504041525 7 191 0.0 0.0 0.00 0.00 0.00 74 998.3
20260504040024 7 191 0.0 0.0 0.00 0.00 0.00 73 998.2
20260504034531 7 191 0.0 0.0 0.00 0.00 0.00 74 998.4
20260504033036 7 191 0.0 1.6 0.00 0.00 0.00 73 998.2
20260504031528 7 191 0.0 0.0 0.00 0.00 0.00 73 998.3
20260504030022 7 192 1.6 4.8 0.00 0.00 0.00 71 998.1
20260504024539 8 195 0.0 1.6 0.00 0.00 0.00 69 998.2
20260504023021 8 195 0.0 0.0 0.00 0.00 0.00 68 998.2
20260504021520 9 195 0.0 1.6 0.00 0.00 0.00 69 998.0
20260504020020 9 195 0.0 3.2 0.00 0.00 0.00 67 998.0
20260504014520 9 150 3.2 6.4 0.00 0.00 0.00 63 997.9
20260504013019 10 152 3.2 6.4 0.00 0.00 0.00 63 998.0
20260504011519 10 183 1.6 4.8 0.00 0.00 0.00 62 998.1
20260504010018 11 189 0.0 3.2 0.00 0.00 0.00 59 998.0
20260504004534 11 189 1.6 4.8 0.00 0.00 0.00 58 997.7
20260504003016 13 192 3.2 4.8 0.00 0.00 0.00 53 997.5
20260504001517 15 268 0.0 1.6 0.00 0.00 0.00 46 997.3
20260504000017 16 268 0.0 4.8 0.00 0.00 0.00 44 997.5
20260503234515 16 196 1.6 9.7 0.00 0.00 0.00 42 997.5
20260503233013 16 234 0.0 6.4 0.00 0.00 0.00 41 997.6
20260503231514 17 309 3.2 11.3 0.00 0.00 0.00 41 997.7
20260503230017 17 150 3.2 8.0 0.00 0.00 0.00 40 997.5
20260503224511 17 232 0.0 12.9 0.00 0.00 0.00 40 997.8
20260503223009 16 284 3.2 12.9 0.00 0.00 0.00 40 997.9
20260503221507 16 290 8.0 16.1 0.00 0.00 0.00 40 998.0
20260503220008 16 266 3.2 11.3 0.00 0.00 0.00 42 998.0
20260503214507 16 297 0.0 20.9 0.00 0.00 0.00 42 998.2